Time,TemperatureF,DewpointF,PressureIn,WindDirection,WindDirectionDegrees,WindSpeedMPH,WindSpeedGustMPH,Humidity,HourlyPrecipIn,Conditions,Clouds,dailyrainin,SoftwareType,DateUTC
2013-01-11 02:05:00,28.3,21.6,30.65,West,270,0.4,0.4,76,0.00,,,0.00,WUHU216HW,2013-01-11 07:05:00,
2013-01-11 02:06:00,28.3,21.6,30.65,West,270,0.3,0.4,76,0.00,,,0.00,WUHU216HW,2013-01-11 07:06:00,
2013-01-11 02:11:00,28.1,21.4,30.65,West,270,0.0,0.4,76,0.00,,,0.00,WUHU216HW,2013-01-11 07:11:00,
2013-01-11 02:16:00,28.1,21.8,30.65,West,270,0.4,0.4,77,0.00,,,0.00,WUHU216HW,2013-01-11 07:16:00,
2013-01-11 02:21:00,28.1,21.8,30.64,West,270,0.3,0.4,77,0.00,,,0.00,WUHU216HW,2013-01-11 07:21:00,
2013-01-11 02:26:00,28.1,21.8,30.64,ESE,113,0.4,0.4,77,0.00,,,0.00,WUHU216HW,2013-01-11 07:26:00,
2013-01-11 02:31:00,28.1,21.8,30.64,WSW,248,0.2,0.4,77,0.00,,,0.00,WUHU216HW,2013-01-11 07:31:00,
2013-01-11 02:36:00,28.1,21.8,30.63,WNW,293,0.4,0.4,77,0.00,,,0.00,WUHU216HW,2013-01-11 07:36:00,
2013-01-11 02:41:00,28.1,21.8,30.64,SW,225,0.2,0.7,77,0.00,,,0.00,WUHU216HW,2013-01-11 07:41:00,
2013-01-11 02:46:00,28.1,21.8,30.63,NNW,338,0.0,0.7,77,0.00,,,0.00,WUHU216HW,2013-01-11 07:46:00,
2013-01-11 02:49:00,28.1,21.8,30.64,NNW,338,0.0,0.2,77,0.00,,,0.00,WUHU216HW,2013-01-11 07:49:00,
2013-01-11 08:57:00,28.1,21.8,30.64,NNW,338,0.0,0.0,77,0.00,,,0.00,WUHU216HW,2013-01-11 13:57:00,
2013-01-11 09:02:00,31.3,24.9,30.62,East,90,0.0,0.2,77,0.00,,,0.00,WUHU216HW,2013-01-11 14:02:00,
2013-01-11 09:07:00,31.3,24.9,30.62,ENE,58,0.5,0.7,77,0.00,,,0.00,WUHU216HW,2013-01-11 14:07:00,
2013-01-11 09:12:00,31.3,24.9,30.61,East,90,0.4,0.7,77,0.00,,,0.00,WUHU216HW,2013-01-11 14:12:00,
2013-01-11 09:17:00,31.3,24.9,30.60,East,90,0.7,1.1,77,0.00,,,0.00,WUHU216HW,2013-01-11 14:17:00,
2013-01-11 09:22:00,31.5,25.1,30.59,East,98,0.6,1.1,77,0.00,,,0.00,WUHU216HW,2013-01-11 14:22:00,
2013-01-11 09:27:00,31.5,25.1,30.60,ENE,68,0.6,1.1,77,0.00,,,0.00,WUHU216HW,2013-01-11 14:27:00,
2013-01-11 09:32:00,31.5,24.9,30.59,ESE,113,0.4,0.9,76,0.00,,,0.00,WUHU216HW,2013-01-11 14:32:00,
2013-01-11 09:37:00,31.7,25.0,30.60,ENE,68,0.5,1.1,76,0.00,,,0.00,WUHU216HW,2013-01-11 14:37:00,
2013-01-11 09:42:00,31.7,25.0,30.60,NE,45,0.7,1.1,76,0.00,,,0.00,WUHU216HW,2013-01-11 14:42:00,
2013-01-11 09:47:00,31.9,25.2,30.60,East,90,0.7,1.3,76,0.00,,,0.00,WUHU216HW,2013-01-11 14:47:00,
2013-01-11 09:52:00,32.0,25.4,30.60,ENE,77,0.8,1.3,76,0.00,,,0.00,WUHU216HW,2013-01-11 14:52:00,
2013-01-11 09:57:00,32.0,25.4,30.60,East,87,0.6,1.3,76,0.00,,,0.00,WUHU216HW,2013-01-11 14:57:00,
2013-01-11 10:02:00,32.0,25.4,30.60,ENE,68,1.1,1.6,76,0.00,,,0.00,WUHU216HW,2013-01-11 15:02:00,
2013-01-11 10:07:00,32.2,25.5,30.61,SSW,203,1.1,1.6,76,0.00,,,0.00,WUHU216HW,2013-01-11 15:07:00,
2013-01-11 10:12:00,32.8,26.0,30.61,East,90,0.7,1.1,76,0.00,,,0.00,WUHU216HW,2013-01-11 15:12:00,
2013-01-11 10:17:00,32.9,26.2,30.61,ENE,74,0.6,1.1,76,0.00,,,0.00,WUHU216HW,2013-01-11 15:17:00,
2013-01-11 10:22:00,33.3,26.2,30.62,ESE,110,0.6,1.3,75,0.00,,,0.00,WUHU216HW,2013-01-11 15:22:00,
2013-01-11 10:27:00,33.5,26.3,30.61,East,90,0.9,1.3,75,0.00,,,0.00,WUHU216HW,2013-01-11 15:27:00,
2013-01-11 10:32:00,33.8,26.6,30.61,ENE,68,0.4,1.1,75,0.00,,,0.00,WUHU216HW,2013-01-11 15:32:00,
2013-01-11 10:37:00,34.0,26.5,30.61,NE,47,0.3,1.6,74,0.00,,,0.00,WUHU216HW,2013-01-11 15:37:00,
2013-01-11 10:42:00,34.2,26.6,30.61,ESE,121,0.2,1.6,74,0.00,,,0.00,WUHU216HW,2013-01-11 15:42:00,
2013-01-11 10:47:00,34.4,26.8,30.60,ENE,72,0.3,1.1,74,0.00,,,0.00,WUHU216HW,2013-01-11 15:47:00,
2013-01-11 10:52:00,34.6,27.0,30.59,ENE,67,0.6,1.1,74,0.00,,,0.00,WUHU216HW,2013-01-11 15:52:00,
2013-01-11 10:57:00,34.4,26.8,30.59,East,94,0.5,1.1,74,0.00,,,0.00,WUHU216HW,2013-01-11 15:57:00,
2013-01-11 11:02:00,34.4,26.6,30.58,ENE,58,0.6,1.8,73,0.00,,,0.00,WUHU216HW,2013-01-11 16:02:00,
2013-01-11 11:07:00,34.4,26.6,30.58,ESE,113,0.7,1.8,73,0.00,,,0.00,WUHU216HW,2013-01-11 16:07:00,
2013-01-11 11:12:00,34.4,26.6,30.58,East,100,0.5,1.1,73,0.00,,,0.00,WUHU216HW,2013-01-11 16:12:00,
2013-01-11 11:17:00,34.6,26.7,30.58,SE,130,0.3,1.1,73,0.00,,,0.00,WUHU216HW,2013-01-11 16:17:00,
2013-01-11 11:22:00,34.6,26.7,30.57,NNW,338,0.4,0.7,73,0.00,,,0.00,WUHU216HW,2013-01-11 16:22:00,
2013-01-11 11:27:00,34.9,27.1,30.57,East,99,0.5,0.7,73,0.00,,,0.00,WUHU216HW,2013-01-11 16:27:00,
2013-01-11 11:32:00,34.9,27.1,30.56,ENE,77,0.3,0.7,73,0.00,,,0.00,WUHU216HW,2013-01-11 16:32:00,
2013-01-11 11:37:00,34.9,27.1,30.55,ENE,68,1.1,1.1,73,0.00,,,0.00,WUHU216HW,2013-01-11 16:37:00,
2013-01-11 11:42:00,35.1,27.3,30.54,East,90,0.7,1.1,73,0.00,,,0.00,WUHU216HW,2013-01-11 16:42:00,
2013-01-11 11:47:00,35.1,27.3,30.53,East,90,0.7,1.1,73,0.00,,,0.00,WUHU216HW,2013-01-11 16:47:00,
2013-01-11 11:52:00,35.3,27.5,30.54,East,88,0.6,1.3,73,0.00,,,0.00,WUHU216HW,2013-01-11 16:52:00,
2013-01-11 11:57:00,35.1,27.3,30.54,ENE,68,0.9,1.8,73,0.00,,,0.00,WUHU216HW,2013-01-11 16:57:00,
2013-01-11 12:02:00,35.1,27.3,30.54,East,90,0.0,1.8,73,0.00,,,0.00,WUHU216HW,2013-01-11 17:02:00,
2013-01-11 12:07:00,35.1,27.3,30.53,ENE,68,0.4,0.9,73,0.00,,,0.00,WUHU216HW,2013-01-11 17:07:00,
2013-01-11 12:12:00,34.9,27.1,30.53,ENE,68,1.1,1.8,73,0.00,,,0.00,WUHU216HW,2013-01-11 17:12:00,
2013-01-11 12:17:00,35.1,27.3,30.53,ESE,102,0.6,1.8,73,0.00,,,0.00,WUHU216HW,2013-01-11 17:17:00,
2013-01-11 12:22:00,35.1,27.3,30.53,East,90,0.2,1.1,73,0.00,,,0.00,WUHU216HW,2013-01-11 17:22:00,
2013-01-11 12:27:00,35.3,27.5,30.52,ENE,68,0.7,0.7,73,0.00,,,0.00,WUHU216HW,2013-01-11 17:27:00,
2013-01-11 12:32:00,35.6,27.8,30.52,South,178,0.4,1.6,73,0.00,,,0.00,WUHU216HW,2013-01-11 17:32:00,
2013-01-11 12:37:00,35.6,27.8,30.52,East,90,1.8,1.8,73,0.00,,,0.00,WUHU216HW,2013-01-11 17:37:00,
2013-01-11 12:42:00,35.6,27.8,30.51,East,90,0.9,2.5,73,0.00,,,0.00,WUHU216HW,2013-01-11 17:42:00,
2013-01-11 12:47:00,35.6,27.8,30.51,East,85,1.0,2.5,73,0.00,,,0.00,WUHU216HW,2013-01-11 17:47:00,
2013-01-11 12:52:00,35.5,27.6,30.51,East,90,0.4,1.8,73,0.00,,,0.00,WUHU216HW,2013-01-11 17:52:00,
2013-01-11 12:57:00,35.5,27.6,30.50,ENE,75,0.7,1.3,73,0.00,,,0.00,WUHU216HW,2013-01-11 17:57:00,
2013-01-11 13:02:00,35.5,27.6,30.50,NE,45,1.1,1.3,73,0.00,,,0.00,WUHU216HW,2013-01-11 18:02:00,
2013-01-11 13:07:00,35.6,27.8,30.50,East,90,0.7,1.1,73,0.00,,,0.00,WUHU216HW,2013-01-11 18:07:00,
2013-01-11 13:12:00,35.8,28.0,30.50,East,91,0.5,1.1,73,0.00,,,0.00,WUHU216HW,2013-01-11 18:12:00,
2013-01-11 13:17:00,36.0,28.2,30.50,SW,225,0.4,1.1,73,0.00,,,0.00,WUHU216HW,2013-01-11 18:17:00,
2013-01-11 13:22:00,36.2,28.4,30.50,East,89,0.3,0.4,73,0.00,,,0.00,WUHU216HW,2013-01-11 18:22:00,
2013-01-11 13:27:00,36.4,28.5,30.50,ESE,113,0.4,0.4,73,0.00,,,0.00,WUHU216HW,2013-01-11 18:27:00,
2013-01-11 13:32:00,36.0,28.2,30.49,East,96,0.4,1.6,73,0.00,,,0.00,WUHU216HW,2013-01-11 18:32:00,
2013-01-11 13:37:00,36.0,28.2,30.50,East,90,0.9,1.6,73,0.00,,,0.00,WUHU216HW,2013-01-11 18:37:00,
2013-01-11 13:42:00,36.0,28.2,30.49,ENE,68,0.3,0.9,73,0.00,,,0.00,WUHU216HW,2013-01-11 18:42:00,
2013-01-11 13:47:00,36.0,28.2,30.49,NE,45,1.1,1.1,73,0.00,,,0.00,WUHU216HW,2013-01-11 18:47:00,
2013-01-11 13:52:00,36.0,28.2,30.49,NE,45,0.4,1.1,73,0.00,,,0.00,WUHU216HW,2013-01-11 18:52:00,
2013-01-11 13:57:00,36.2,28.6,30.49,ESE,113,0.2,1.1,74,0.00,,,0.00,WUHU216HW,2013-01-11 18:57:00,
2013-01-11 14:02:00,36.2,28.6,30.49,SSE,158,0.4,0.4,74,0.00,,,0.00,WUHU216HW,2013-01-11 19:02:00,
2013-01-11 14:07:00,36.2,28.6,30.48,ESE,113,0.2,0.4,74,0.00,,,0.00,WUHU216HW,2013-01-11 19:07:00,
2013-01-11 14:12:00,36.2,28.6,30.48,SE,135,0.0,0.4,74,0.00,,,0.00,WUHU216HW,2013-01-11 19:12:00,
2013-01-11 14:17:00,36.2,28.6,30.49,East,90,0.0,0.4,74,0.00,,,0.00,WUHU216HW,2013-01-11 19:17:00,
2013-01-11 14:22:00,36.2,28.6,30.49,SSE,158,0.0,0.4,74,0.00,,,0.00,WUHU216HW,2013-01-11 19:22:00,
2013-01-11 14:27:00,36.2,29.0,30.49,SE,135,0.0,0.0,75,0.00,,,0.00,WUHU216HW,2013-01-11 19:27:00,
2013-01-11 14:32:00,36.2,29.0,30.49,SE,135,0.0,0.0,75,0.00,,,0.00,WUHU216HW,2013-01-11 19:32:00,
2013-01-11 14:37:00,36.2,29.0,30.49,ESE,113,0.2,0.2,75,0.00,,,0.00,WUHU216HW,2013-01-11 19:37:00,
2013-01-11 14:42:00,36.2,29.4,30.48,East,90,0.0,0.7,76,0.00,,,0.00,WUHU216HW,2013-01-11 19:42:00,
2013-01-11 14:47:00,35.8,29.0,30.48,East,90,0.4,0.7,76,0.00,,,0.00,WUHU216HW,2013-01-11 19:47:00,
2013-01-11 14:52:00,35.6,29.1,30.47,ENE,68,0.0,0.7,77,0.00,,,0.00,WUHU216HW,2013-01-11 19:52:00,
2013-01-11 14:57:00,35.5,29.3,30.47,ENE,68,0.2,0.7,78,0.00,,,0.00,WUHU216HW,2013-01-11 19:57:00,
2013-01-11 15:02:00,35.3,29.3,30.46,ENE,68,0.4,1.1,79,0.00,,,0.00,WUHU216HW,2013-01-11 20:02:00,
2013-01-11 15:07:00,35.1,29.5,30.47,ENE,68,0.2,1.1,80,0.00,,,0.00,WUHU216HW,2013-01-11 20:07:00,
2013-01-11 15:12:00,35.1,29.5,30.47,ENE,68,0.0,0.7,80,0.00,,,0.00,WUHU216HW,2013-01-11 20:12:00,
2013-01-11 15:17:00,34.9,29.3,30.47,ENE,68,0.0,0.0,80,0.00,,,0.00,WUHU216HW,2013-01-11 20:17:00,
2013-01-11 15:22:00,34.9,29.3,30.47,ENE,68,0.0,0.0,80,0.00,,,0.00,WUHU216HW,2013-01-11 20:22:00,
2013-01-11 15:27:00,34.9,29.6,30.47,ENE,68,0.0,0.0,81,0.00,,,0.00,WUHU216HW,2013-01-11 20:27:00,
2013-01-11 15:32:00,34.9,29.6,30.47,ENE,68,0.0,0.0,81,0.00,,,0.00,WUHU216HW,2013-01-11 20:32:00,
2013-01-11 15:37:00,34.7,29.7,30.47,East,90,0.0,0.0,82,0.00,,,0.00,WUHU216HW,2013-01-11 20:37:00,
2013-01-11 15:42:00,34.9,29.9,30.46,ENE,68,0.0,0.0,82,0.00,,,0.00,WUHU216HW,2013-01-11 20:42:00,
2013-01-11 15:47:00,34.7,30.1,30.45,East,90,0.9,0.9,83,0.00,,,0.00,WUHU216HW,2013-01-11 20:47:00,
2013-01-11 15:52:00,34.6,29.9,30.44,ENE,68,1.1,1.1,83,0.00,,,0.00,WUHU216HW,2013-01-11 20:52:00,
2013-01-11 15:57:00,34.6,29.9,30.45,East,90,0.7,1.1,83,0.00,,,0.00,WUHU216HW,2013-01-11 20:57:00,
2013-01-11 16:02:00,34.6,30.2,30.45,ENE,68,0.0,1.1,84,0.00,,,0.00,WUHU216HW,2013-01-11 21:02:00,
2013-01-11 16:07:00,34.6,30.2,30.44,East,90,0.4,0.7,84,0.00,,,0.00,WUHU216HW,2013-01-11 21:07:00,
2013-01-11 16:12:00,34.6,30.2,30.44,East,90,0.0,0.4,84,0.00,,,0.00,WUHU216HW,2013-01-11 21:12:00,
2013-01-11 16:17:00,34.6,30.2,30.44,SE,135,0.0,0.4,84,0.00,,,0.00,WUHU216HW,2013-01-11 21:17:00,
2013-01-11 16:22:00,34.7,30.3,30.44,East,90,0.2,0.2,84,0.00,,,0.00,WUHU216HW,2013-01-11 21:22:00,
2013-01-11 16:27:00,34.6,30.2,30.43,East,86,0.6,0.9,84,0.00,,,0.00,WUHU216HW,2013-01-11 21:27:00,
2013-01-11 16:32:00,34.6,30.2,30.43,East,90,0.4,2.0,84,0.00,,,0.00,WUHU216HW,2013-01-11 21:32:00,
2013-01-11 16:37:00,34.6,30.4,30.43,East,88,1.4,2.0,85,0.00,,,0.00,WUHU216HW,2013-01-11 21:37:00,
2013-01-11 16:42:00,34.4,30.2,30.42,NE,45,0.9,1.8,85,0.00,,,0.00,WUHU216HW,2013-01-11 21:42:00,
2013-01-11 16:47:00,34.2,29.8,30.42,NE,45,0.9,1.1,84,0.00,,,0.00,WUHU216HW,2013-01-11 21:47:00,
2013-01-11 16:52:00,34.2,30.1,30.42,ENE,68,0.4,1.1,85,0.00,,,0.00,WUHU216HW,2013-01-11 21:52:00,
2013-01-11 16:57:00,34.2,30.1,30.42,ENE,68,0.0,1.1,85,0.00,,,0.00,WUHU216HW,2013-01-11 21:57:00,
2013-01-11 17:02:00,34.2,30.1,30.42,ENE,78,0.4,0.7,85,0.00,,,0.00,WUHU216HW,2013-01-11 22:02:00,
2013-01-11 17:07:00,34.2,30.1,30.42,ESE,113,0.0,0.7,85,0.00,,,0.00,WUHU216HW,2013-01-11 22:07:00,
2013-01-11 17:12:00,34.2,30.1,30.42,ENE,68,0.3,0.7,85,0.00,,,0.00,WUHU216HW,2013-01-11 22:12:00,
2013-01-11 17:17:00,34.2,30.3,30.41,ENE,68,0.4,0.7,86,0.00,,,0.00,WUHU216HW,2013-01-11 22:17:00,
2013-01-11 17:22:00,34.2,30.3,30.41,ENE,68,0.0,0.7,86,0.00,,,0.00,WUHU216HW,2013-01-11 22:22:00,
2013-01-11 17:27:00,34.2,30.3,30.41,ENE,68,0.0,0.4,86,0.00,,,0.00,WUHU216HW,2013-01-11 22:27:00,
2013-01-11 17:32:00,34.2,30.3,30.41,NE,36,0.4,0.4,86,0.00,,,0.00,WUHU216HW,2013-01-11 22:32:00,
2013-01-11 17:37:00,34.4,30.5,30.41,North,0,0.0,0.4,86,0.00,,,0.00,WUHU216HW,2013-01-11 22:37:00,
2013-01-11 17:42:00,34.4,30.5,30.41,NNE,23,0.0,0.0,86,0.00,,,0.00,WUHU216HW,2013-01-11 22:42:00,
2013-01-11 17:47:00,34.4,30.5,30.41,NNE,23,0.0,0.0,86,0.00,,,0.00,WUHU216HW,2013-01-11 22:47:00,
2013-01-11 17:52:00,34.6,30.7,30.41,ESE,110,0.7,1.1,86,0.00,,,0.00,WUHU216HW,2013-01-11 22:52:00,
2013-01-11 17:57:00,34.6,30.7,30.41,ENE,68,0.4,1.1,86,0.00,,,0.00,WUHU216HW,2013-01-11 22:57:00,
2013-01-11 18:02:00,34.6,30.7,30.40,ENE,68,0.3,0.4,86,0.00,,,0.00,WUHU216HW,2013-01-11 23:02:00,
2013-01-11 18:07:00,34.6,30.7,30.40,ENE,68,0.0,0.4,86,0.00,,,0.00,WUHU216HW,2013-01-11 23:07:00,
2013-01-11 18:12:00,34.6,30.7,30.40,NE,45,0.0,0.0,86,0.00,,,0.00,WUHU216HW,2013-01-11 23:12:00,
2013-01-11 18:17:00,34.6,31.0,30.39,East,90,0.0,0.0,87,0.00,,,0.00,WUHU216HW,2013-01-11 23:17:00,
2013-01-11 18:22:00,34.6,30.7,30.39,East,90,0.4,0.7,86,0.00,,,0.00,WUHU216HW,2013-01-11 23:22:00,
2013-01-11 18:27:00,34.6,31.0,30.39,East,90,0.3,1.1,87,0.00,,,0.00,WUHU216HW,2013-01-11 23:27:00,
2013-01-11 18:33:00,34.6,31.0,30.39,ENE,68,0.4,1.1,87,0.00,,,0.00,WUHU216HW,2013-01-11 23:33:00,
2013-01-11 18:38:00,34.6,31.0,30.38,ENE,68,0.0,0.4,87,0.00,,,0.00,WUHU216HW,2013-01-11 23:38:00,
2013-01-11 18:43:00,34.6,31.0,30.38,ENE,77,0.4,1.1,87,0.00,,,0.00,WUHU216HW,2013-01-11 23:43:00,
2013-01-11 18:48:00,34.6,31.0,30.38,ENE,68,0.0,1.1,87,0.00,,,0.00,WUHU216HW,2013-01-11 23:48:00,
2013-01-11 18:53:00,34.6,31.0,30.38,ENE,68,0.0,0.0,87,0.00,,,0.00,WUHU216HW,2013-01-11 23:53:00,
2013-01-11 18:58:00,34.6,31.0,30.38,ENE,68,0.0,0.0,87,0.00,,,0.00,WUHU216HW,2013-01-11 23:58:00,
2013-01-11 19:03:00,34.7,31.1,30.38,ENE,68,0.0,0.0,87,0.00,,,0.00,WUHU216HW,2013-01-12 00:03:00,
2013-01-11 19:08:00,34.7,31.5,30.37,East,90,0.0,0.4,88,0.00,,,0.00,WUHU216HW,2013-01-12 00:08:00,
2013-01-11 19:13:00,34.7,31.5,30.37,ENE,68,0.4,0.4,88,0.00,,,0.00,WUHU216HW,2013-01-12 00:13:00,
2013-01-11 19:18:00,34.9,31.7,30.37,ENE,68,0.0,0.4,88,0.00,,,0.00,WUHU216HW,2013-01-12 00:18:00,
2013-01-11 19:23:00,34.9,31.7,30.36,ENE,68,0.0,0.0,88,0.00,,,0.00,WUHU216HW,2013-01-12 00:23:00,
2013-01-11 19:28:00,34.9,31.7,30.37,ENE,68,0.0,0.0,88,0.00,,,0.00,WUHU216HW,2013-01-12 00:28:00,
2013-01-11 19:33:00,34.9,31.7,30.36,ENE,68,0.0,0.0,88,0.00,,,0.00,WUHU216HW,2013-01-12 00:33:00,
2013-01-11 19:38:00,34.9,31.7,30.37,SW,225,0.0,0.0,88,0.00,,,0.00,WUHU216HW,2013-01-12 00:38:00,
2013-01-11 19:43:00,34.9,31.7,30.36,SW,225,0.0,0.0,88,0.00,,,0.00,WUHU216HW,2013-01-12 00:43:00,
2013-01-11 19:48:00,35.1,31.9,30.36,SW,225,0.0,0.0,88,0.00,,,0.00,WUHU216HW,2013-01-12 00:48:00,
2013-01-11 19:53:00,35.1,31.9,30.36,SW,225,0.0,0.0,88,0.00,,,0.00,WUHU216HW,2013-01-12 00:53:00,
2013-01-11 19:58:00,35.3,32.1,30.36,WSW,248,0.0,0.0,88,0.00,,,0.00,WUHU216HW,2013-01-12 00:58:00,
2013-01-11 20:03:00,35.3,32.1,30.37,WSW,248,0.0,1.1,88,0.00,,,0.00,WUHU216HW,2013-01-12 01:03:00,
2013-01-11 20:08:00,35.3,32.1,30.37,WSW,248,0.5,1.1,88,0.00,,,0.00,WUHU216HW,2013-01-12 01:08:00,
2013-01-11 20:13:00,35.3,32.1,30.37,WSW,248,0.0,0.7,88,0.00,,,0.00,WUHU216HW,2013-01-12 01:13:00,
2013-01-11 20:18:00,35.3,32.1,30.37,WSW,248,0.0,0.0,88,0.00,,,0.00,WUHU216HW,2013-01-12 01:18:00,
2013-01-11 20:23:00,35.5,32.2,30.36,WSW,248,0.0,0.0,88,0.00,,,0.00,WUHU216HW,2013-01-12 01:23:00,
2013-01-11 20:28:00,35.5,32.2,30.36,WSW,248,0.0,0.0,88,0.00,,,0.00,WUHU216HW,2013-01-12 01:28:00,
2013-01-11 20:33:00,35.6,32.4,30.36,WSW,248,0.0,0.2,88,0.00,,,0.00,WUHU216HW,2013-01-12 01:33:00,
2013-01-11 20:38:00,35.6,32.4,30.36,WSW,248,0.0,0.2,88,0.00,,,0.00,WUHU216HW,2013-01-12 01:38:00,
2013-01-11 20:42:00,35.6,32.4,30.35,WSW,248,0.0,0.0,88,0.00,,,0.00,WUHU216HW,2013-01-12 01:42:00,
2013-01-11 20:47:00,35.6,32.7,30.35,WSW,248,0.0,0.0,89,0.00,,,0.00,WUHU216HW,2013-01-12 01:47:00,
2013-01-11 20:53:00,35.6,32.7,30.34,WSW,248,0.0,0.0,89,0.00,,,0.00,WUHU216HW,2013-01-12 01:53:00,
2013-01-11 20:58:00,35.8,32.9,30.34,WSW,248,0.0,0.0,89,0.00,,,0.00,WUHU216HW,2013-01-12 01:58:00,
2013-01-11 21:03:00,35.8,32.9,30.34,WSW,248,0.0,0.0,89,0.00,,,0.00,WUHU216HW,2013-01-12 02:03:00,
2013-01-11 21:08:00,36.0,33.0,30.34,WSW,248,0.0,0.0,89,0.00,,,0.00,WUHU216HW,2013-01-12 02:08:00,
2013-01-11 21:13:00,36.0,33.0,30.34,WSW,248,0.0,0.0,89,0.00,,,0.00,WUHU216HW,2013-01-12 02:13:00,
2013-01-11 21:18:00,36.2,33.2,30.34,WSW,248,0.0,0.0,89,0.00,,,0.00,WUHU216HW,2013-01-12 02:18:00,
2013-01-11 21:23:00,36.2,33.2,30.34,WSW,248,0.0,0.0,89,0.00,,,0.00,WUHU216HW,2013-01-12 02:23:00,
2013-01-11 21:28:00,36.4,33.4,30.34,WSW,248,0.0,0.0,89,0.00,,,0.00,WUHU216HW,2013-01-12 02:28:00,
2013-01-11 21:33:00,36.4,33.4,30.34,WSW,248,0.0,0.0,89,0.00,,,0.00,WUHU216HW,2013-01-12 02:33:00,
2013-01-11 21:38:00,36.4,33.4,30.34,WSW,248,0.0,0.0,89,0.00,,,0.00,WUHU216HW,2013-01-12 02:38:00,
2013-01-11 21:43:00,36.4,33.4,30.34,WSW,248,0.0,0.0,89,0.00,,,0.00,WUHU216HW,2013-01-12 02:43:00,
2013-01-11 21:48:00,36.4,33.4,30.33,WSW,248,0.0,0.0,89,0.00,,,0.00,WUHU216HW,2013-01-12 02:48:00,
2013-01-11 21:53:00,36.5,33.6,30.33,WSW,248,0.0,0.0,89,0.00,,,0.00,WUHU216HW,2013-01-12 02:53:00,
2013-01-11 21:58:00,36.5,33.6,30.34,WSW,248,0.0,0.0,89,0.00,,,0.00,WUHU216HW,2013-01-12 02:58:00,
2013-01-11 22:03:00,36.4,33.4,30.33,WSW,248,0.0,0.0,89,0.00,,,0.00,WUHU216HW,2013-01-12 03:03:00,
2013-01-11 22:07:00,36.4,33.4,30.33,WSW,248,0.0,0.0,89,0.00,,,0.00,WUHU216HW,2013-01-12 03:07:00,